Location: ?????????
(54.7630°N, 39.4991°E)
Time: 21:48:53
(UTC+00:00)

Meteor 2-3 Rocket - Pass Details

Date: 14 April 2026
Orbit: 845 x 880 km, 81.2° (Epoch: 13 May)

Event Time Altitude Azimuth Distance (km) Brightness Sun altitude
Rises 21:30:12 0° 342° (NNW) 3,436 8.0 -25.6°
Reaches altitude 10° 21:32:44 10° 336° (NNW) 2,491 7.0 -25.5°
Maximum altitude 21:37:59 41° 268° (W) 1,209 4.4 -25.5°
Enters shadow 21:38:27 41° 255° (WSW) 1,224 4.3 -25.5°
